Вернуться в каталог

CZ-4 DEB

АктивенSSO
NORAD 26442·DEBRIS·🇨🇳 China

Запущен Oct 14, 1999 с Taiyuan Satellite Launch Center

Loading…

Ближайшие Пролёты (ближайшие 24 часа)

TLE

СвежийSource: Space-Track

Эпоха: Sep 13, 2026, 18:15 UTC

1 26442U 99057KP  26256.76043662  .00001084  00000-0  22436-3 0  9996
2 26442  98.5405 277.2163 0053593 297.8822 114.5119 14.61595016393940

Отслеживайте CZ-4 DEB в реальном времени с AllMySat

Download on the App Store